STARLINK-11527, 62523

Orbit data source: Space-Track

STARLINK-11527, 62523 is a payload satellite owned by SpaceX/Seattle (US) in LEO that was launched on Wed, 08 Jan 2025 UTC via an FALCON 9 launch vehicle from the Air Force Eastern Test Range (AFETR). Payload-class satellites include a variety of spacecraft equipped with specific instruments for various scientific and technological missions. These include communications satellites like Starlink; space stations such as the ISS; scientific satellites like the Hubble; Earth observation satellites from companies like Planet Labs, Umbra, and HawkEye 360; GPS; miniature CubeSats for education and research; and military/defense satellites.

Loading next visibility...
Identifier
62523, 2025-004N
Orbit
LEO
Country
Flag of USUS
Related business
Manufacturer
SpaceX/Seattle
Mission
Operational Commercial Communications
Bus & Motor
STARLINK V2MD, Unknown motor
Mass
960 kg wet, ~910 kg dry
Launch date (UTC)
2025-01-08 (1 year ago)
Launch vehicle
FALCON 9
Launch site
Air Force Eastern Test Range (AFETR)
Object type
Payload
Rocket body
Debris
Shape & HBR
Box + 2 Pan, 18.1 m
Radar Cross Section
36.964 m², Large (>1 m²)

Expand to show TLE details & history
Last TLE update: 16 hours ago

TLE from 16 hours ago
0 STARLINK-11527
1 62523U 25004N   26125.61130149  .00180259  00000-0  13737-2 0  9998
2 62523  43.0001  87.3683 0000472  25.5647 334.5244 15.70915091 76168
Epoch: 2026-05-05T14:40Z
TLE epoch observation values (Epoch: 2026-05-05T14:40:16.448Z)
Latitude
-0.00003°
Longitude
3.81608°
Altitude
355.765 km
Speed
7.698 km/s
True Right ascension
05h 49m 28s
True Declination
0° 00' 00"
Sunlit
Object was in daylight at epoch
Visualization orbit readout
Latitude
Unknown
Longitude
Unknown
Altitude
Unknown
Speed
Unknown
Apparent Right ascension
Unknown
Apparent Declination
Unknown
Sunlit
N/A
Visualization observer readout
Local Sidereal Time
14:51:14
Azimuth
Unknown
Elevation
Unknown
Doppler factor
Unknown
Orbital elements
Apogee altitude
358.58 km
Perigee altitude
357.944 km
Semi-major axis
6,736.399 km
Eccentricity
0.00005
Inclination
43.0001°
RAAN
87.3683°
Arg. of periapsis
25.5647°
True anomaly
334.52207°
Mean anomaly
334.5244°
Eccentric anomaly
334.52324°
Mean motion
3.92556 °/min
Orbital period
91.71 mins
BSTAR
0.0013737
Loading maneuver chart data...
Computing Atmospheric mass density...
Loading historical data...
Loading historical data...
Loading historical data...
Loading historical data...
Loading historical data...
Loading historical data...
Loading historical data...

Documentation

Showing up to 5 results
|